S59MA-6 Weather Reports


time (UTC)temp
C
wind
direction
speed
KPH
gust
KPH
rain 1hr
cm
rain 24hr
cm
rain mn
cm
humidity
%
barometer
mb
20260506185033 15 248 0.0 0.0 0.00 25.37 0.00 83 999.1
20260506184534 15 248 0.0 0.0 0.00 25.37 0.00 83 999.0
20260506184034 15 248 0.0 0.0 0.00 25.37 0.00 83 999.0
20260506183539 15 248 0.0 0.0 0.05 25.37 0.00 83 999.0
20260506183033 15 248 0.0 0.0 0.05 25.37 0.00 83 999.0
20260506182034 15 248 0.0 0.0 0.05 25.37 0.00 83 998.7
20260506181533 15 248 0.0 0.0 0.05 25.37 0.00 83 998.5
20260506181035 15 248 0.0 0.0 0.05 25.37 0.00 83 998.4
20260506180533 15 248 0.0 0.0 0.05 25.37 0.00 83 998.4
20260506175033 15 248 0.0 0.0 0.05 25.37 0.00 83 998.4
20260506174533 15 359 0.0 0.0 0.05 25.37 0.00 83 998.5
20260506173533 15 248 0.0 0.0 0.00 25.37 0.00 82 998.5
20260506173033 15 248 35.4 35.4 0.00 25.37 0.00 82 998.4
20260506172533 15 248 35.4 35.4 0.00 25.37 0.00 82 998.5
20260506171534 15 248 0.0 0.0 0.00 25.37 0.00 82 998.3
20260506170535 15 248 0.0 0.0 0.00 25.37 0.00 82 998.4
20260506170033 15 248 0.0 0.0 0.00 25.37 0.00 82 998.4
20260506165533 15 248 0.0 0.0 0.00 25.37 0.00 82 998.6
20260506165413 15 248 0.0 0.0 0.00 25.37 0.00 82 998.6
20260506165034 15 248 0.0 0.0 0.00 25.37 0.00 82 998.6
20260506163534 16 248 0.0 0.0 0.30 25.37 0.00 81 998.7
20260506163035 16 248 0.0 0.0 0.46 25.37 0.00 81 998.6
20260506162534 16 248 3.2 3.2 0.46 25.37 0.00 81 998.6
20260506162034 16 248 0.0 0.0 0.46 25.37 0.00 82 998.6
20260506161535 16 248 0.0 0.0 0.46 25.37 0.00 82 998.9
20260506161035 16 248 0.0 0.0 0.46 25.37 0.00 82 999.0
20260506160536 16 248 4.8 4.8 0.46 25.37 0.00 82 999.0
20260506160035 16 248 4.8 4.8 0.46 25.37 0.00 82 998.9
20260506155534 16 248 0.0 0.0 0.46 25.37 0.00 82 998.9
20260506155034 16 359 0.0 0.0 0.46 25.37 0.00 82 998.8
20260506154534 16 359 0.0 0.0 0.46 25.37 0.00 83 999.0
20260506153534 16 248 37.0 37.0 0.15 25.37 0.00 84 999.0
20260506152534 15 359 0.0 0.0 0.00 25.37 0.00 84 999.3
20260506152034 16 248 0.0 0.0 0.00 25.37 0.00 84 999.4
20260506151536 16 248 0.0 0.0 0.00 25.37 0.00 84 999.2
20260506151034 15 248 0.0 0.0 0.00 25.37 0.00 85 999.5
20260506150534 15 248 0.0 0.0 0.00 25.37 0.00 85 999.2
20260506150034 15 248 0.0 0.0 0.00 25.37 0.00 85 999.4
20260506145534 15 248 0.0 0.0 0.00 25.37 0.00 85 999.5
20260506145034 15 248 0.0 0.0 0.10 25.37 0.00 85 999.4
20260506143534 15 248 4.8 4.8 0.10 25.37 0.00 86 999.4
20260506143035 15 248 4.8 4.8 0.10 25.37 0.00 86 999.4
20260506142534 15 248 0.0 0.0 0.10 25.37 0.00 85 999.6
20260506141534 15 248 0.0 0.0 0.10 25.37 0.00 85 999.7
20260506140534 15 248 0.0 0.0 0.30 25.37 0.00 85 999.7
20260506140034 15 248 0.0 0.0 0.30 25.37 0.00 85 999.6
20260506135535 15 248 0.0 0.0 0.36 25.37 0.00 86 999.9
20260506134539 15 248 32.2 32.2 0.25 25.37 0.00 86 999.8
20260506133534 15 248 6.4 6.4 0.30 25.37 0.00 86 1000.0
20260506132534 15 248 35.4 35.4 0.30 25.37 0.00 86 999.8
20260506132034 14 248 35.4 35.4 0.30 25.37 0.00 86 999.9
20260506131034 15 359 0.0 0.0 5.89 25.37 0.00 86 999.9
20260506125534 14 248 35.4 35.4 25.37 25.37 0.00 85 1000.0
20260506125034 14 248 0.0 0.0 25.37 25.37 0.00 85 1000.0
20260506124536 14 248 0.0 0.0 25.37 25.37 0.00 85 1000.1
20260506123536 14 248 0.0 0.0 25.37 25.37 0.00 85 1000.0
20260506123115 14 248 0.0 0.0 25.37 25.37 0.00 85 1000.1
20260506123034 14 248 0.0 0.0 25.37 25.37 0.00 85 1000.1
20260506122534 14 248 0.0 0.0 25.37 25.37 0.00 85 1000.2
20260506121534 14 248 0.0 0.0 25.37 25.37 0.00 85 1000.2
20260506121037 14 248 0.0 0.0 25.37 25.37 0.00 84 1000.1
20260506120035 15 359 0.0 0.0 13.21 25.37 0.00 84 999.8
20260506115534 14 248 0.0 0.0 0.00 25.37 0.00 84 999.5
20260506115035 14 248 0.0 0.0 0.00 25.37 0.00 84 1000.4
20260506114535 15 248 0.0 0.0 0.00 25.37 0.00 84 1000.3
20260506114035 15 248 0.0 0.0 0.00 25.37 0.00 84 1000.3
20260506113535 15 248 0.0 0.0 0.00 25.37 0.00 84 1000.3
20260506113036 15 248 0.0 0.0 0.00 25.37 0.00 84 1000.4
20260506112536 15 248 0.0 0.0 0.00 25.37 0.00 83 1000.4
20260506112036 15 248 0.0 0.0 0.00 25.37 0.00 83 1000.5
20260506111535 15 248 0.0 0.0 0.00 25.37 0.00 83 1000.4
20260506111036 15 248 0.0 0.0 0.00 25.37 0.00 83 1000.4
20260506110536 15 248 0.0 0.0 0.00 25.37 0.00 84 1000.5
20260506110035 15 248 0.0 0.0 0.00 25.37 0.00 84 1000.5
20260506105535 15 248 0.0 0.0 0.00 25.37 0.00 84 1000.5
20260506105037 15 248 0.0 0.0 0.00 25.37 0.00 84 1000.6
20260506104536 15 248 0.0 0.0 0.00 25.37 0.00 84 1000.7
20260506104035 15 248 0.0 0.0 0.00 25.37 0.00 84 1000.6
20260506103536 15 248 0.0 0.0 0.00 25.37 0.00 84 1000.6
20260506103037 15 248 0.0 0.0 0.00 25.37 0.00 84 1000.7
20260506102536 15 248 0.0 0.0 0.15 25.37 0.00 84 1000.5
20260506102035 15 248 0.0 0.0 0.15 25.37 0.00 84 1000.6
20260506101535 15 248 0.0 0.0 0.20 25.37 0.00 84 1000.7
20260506100537 15 248 0.0 0.0 0.20 25.37 0.00 83 1000.9
20260506100035 15 248 0.0 0.0 0.25 25.37 0.00 83 1001.0
20260506095535 15 248 0.0 0.0 0.25 25.37 0.00 83 1001.1
20260506095039 15 248 0.0 0.0 0.25 25.37 0.00 83 1001.1
20260506094535 15 248 0.0 0.0 0.25 25.37 0.00 83 1001.2
20260506093535 15 248 59.5 59.5 0.30 25.37 0.00 83 1001.1
20260506093036 15 248 59.5 59.5 0.30 25.37 0.00 84 1001.1
20260506092536 15 248 59.5 59.5 0.15 25.37 0.00 84 1001.1
20260506092035 15 248 59.5 59.5 0.15 25.37 0.00 84 1001.0
20260506091037 15 359 0.0 0.0 0.10 25.37 0.00 84 1001.0
20260506090536 15 359 0.0 0.0 0.10 25.37 0.00 84 1001.1
20260506090036 15 359 0.0 0.0 0.05 25.37 0.00 84 1001.0
20260506084535 15 248 66.0 66.0 0.05 25.37 0.00 83 1000.9
20260506083537 15 248 20.9 20.9 0.00 25.37 0.00 83 1000.7
20260506083038 15 248 0.0 0.0 0.00 25.37 0.00 83 1000.7
20260506082537 15 248 0.0 0.0 0.00 25.37 0.00 83 1000.7
20260506082035 15 248 0.0 0.0 0.00 25.37 0.00 83 1000.6
20260506081035 15 248 0.0 0.0 0.00 25.37 0.00 83 1000.5
20260506080539 16 248 0.0 0.0 0.00 25.37 0.00 83 1000.4
20260506072538 14 248 0.0 0.0 0.00 25.37 0.00 86 1000.3
20260506072037 13 248 0.0 0.0 0.00 25.37 0.00 86 1000.4
20260506071629 13 180 0.0 0.0 0.00 25.37 0.00 86 1000.5
20260506071535 13 180 0.0 0.0 0.00 25.37 0.00 86 1000.5
20260506070536 13 180 0.0 0.0 0.00 25.37 0.00 85 1000.6
20260506061537 13 270 0.0 0.0 0.00 25.37 0.00 85 1000.5
20260506061036 13 270 0.0 0.0 0.00 25.37 0.00 85 1000.5
20260506060536 13 270 0.0 0.0 0.00 25.37 0.00 86 1000.4
20260506051036 12 248 0.0 0.0 0.00 25.37 0.00 86 1000.4
20260506050536 11 248 0.0 0.0 0.00 25.37 0.00 87 1000.3
20260506045036 10 248 0.0 0.0 0.00 25.37 0.00 86 1000.4
20260506044536 10 248 0.0 0.0 0.00 25.37 0.00 86 1000.4
20260506043539 10 248 0.0 0.0 0.00 25.37 0.00 86 1000.4
20260506042537 11 248 0.0 0.0 0.00 25.37 0.00 86 1000.3
20260506042110 11 248 0.0 0.0 0.00 25.37 0.00 86 1000.4
20260506042038 11 248 0.0 0.0 0.00 25.37 0.00 86 1000.4
20260506041537 11 248 0.0 0.0 0.00 25.37 0.00 86 1000.4
20260506041038 11 248 0.0 0.0 0.00 25.37 0.00 85 1000.4
20260506040537 11 248 0.0 0.0 0.00 25.37 0.00 85 1000.5
20260506040038 11 248 0.0 0.0 0.00 25.37 0.00 85 1000.5
20260506035537 11 248 0.0 0.0 0.00 25.37 0.00 85 1000.6
20260506035036 11 248 0.0 0.0 0.00 25.37 0.00 85 1000.5
20260506034536 11 248 0.0 0.0 0.00 25.37 0.00 85 1000.6
20260506034039 11 248 0.0 0.0 0.00 25.37 0.00 85 1000.4
20260506033536 11 248 0.0 0.0 0.00 25.37 0.00 85 1000.5
20260506033036 11 248 0.0 0.0 0.00 25.37 0.00 85 1000.6
20260506032536 11 248 0.0 0.0 0.00 25.37 0.00 84 1000.6
20260506031536 11 248 0.0 0.0 0.00 25.37 0.00 84 1000.6
20260506031042 11 248 0.0 0.0 0.00 25.37 0.00 84 1000.3
20260506030539 11 248 0.0 0.0 0.00 25.37 0.00 84 1000.4
20260506030036 12 248 0.0 0.0 0.00 25.37 0.00 84 1000.5
20260506025536 12 248 0.0 0.0 0.00 25.37 0.00 84 1000.4
20260506024536 12 248 0.0 0.0 0.00 25.37 0.00 84 1000.6
20260506023039 12 248 0.0 0.0 0.00 25.37 0.00 84 1000.8
20260506021541 12 248 0.0 0.0 0.00 25.37 0.00 84 1001.0
20260506021039 12 248 0.0 0.0 0.00 25.37 0.00 84 1000.8
20260506020538 12 248 0.0 0.0 0.00 25.37 0.00 84 1000.8
20260506020038 12 248 0.0 0.0 0.00 25.37 0.00 83 1000.8
20260506015537 12 248 0.0 0.0 0.00 25.37 0.00 83 1000.8
20260506015037 12 248 0.0 0.0 0.00 25.37 0.00 83 1000.7
20260506014537 12 248 0.0 0.0 0.00 25.37 0.00 83 1000.8
20260506013539 12 248 0.0 0.0 0.00 25.37 0.00 83 1000.6
20260506013148 13 248 0.0 0.0 0.00 25.37 0.00 83 1000.6
20260506013037 13 248 0.0 0.0 0.00 25.37 0.00 83 1000.6
20260506012538 13 248 0.0 0.0 0.00 25.37 0.00 83 1000.5
20260506012037 13 248 0.0 0.0 0.00 25.37 0.00 83 1000.6
20260506011538 13 248 0.0 0.0 0.00 25.37 0.00 83 1000.7
20260506011037 13 359 0.0 0.0 0.00 25.37 0.00 83 1000.6
20260506010538 13 359 0.0 0.0 0.00 25.37 0.00 83 1000.4
20260506010043 13 248 0.0 0.0 0.00 25.37 0.00 83 1000.4
20260506005543 13 248 0.0 0.0 0.00 25.37 0.00 83 1000.4
20260506005037 12 248 0.0 0.0 0.00 25.37 0.00 83 1000.5
20260506004537 12 248 0.0 0.0 0.00 25.37 0.00 83 1000.6
20260506004040 12 248 0.0 0.0 0.00 25.37 0.00 83 1000.7
20260506003537 12 248 0.0 0.0 0.00 25.37 0.00 83 1000.6
20260506003038 12 248 0.0 0.0 0.00 25.37 0.00 83 1000.5
20260506002037 12 248 0.0 0.0 0.00 25.37 0.00 83 1000.6
20260506001537 13 248 0.0 0.0 0.00 25.37 0.00 83 1000.6
20260506001037 13 248 0.0 0.0 0.00 25.37 0.00 83 1000.7
20260506000037 13 248 0.0 0.0 0.00 25.37 0.00 83 1000.8
20260505235537 13 248 0.0 0.0 0.00 25.37 0.00 83 1001.0
20260505235037 13 248 0.0 0.0 0.00 25.37 0.00 83 1001.0
20260505234537 13 248 0.0 0.0 0.00 25.37 0.00 83 1001.0
20260505234043 13 248 0.0 0.0 0.00 25.37 0.00 83 1001.2
20260505233538 13 248 0.0 0.0 0.00 25.37 0.00 83 1001.2
20260505233039 13 248 0.0 0.0 0.00 25.37 0.00 83 1001.2
20260505232537 13 248 0.0 0.0 0.00 25.37 0.00 83 1001.2
20260505232037 13 248 0.0 0.0 0.00 25.37 0.00 82 1001.2
20260505231540 13 248 0.0 0.0 0.00 25.37 0.00 82 1001.3
20260505231038 13 248 0.0 0.0 0.00 25.37 0.00 82 1001.3
20260505230537 13 248 0.0 0.0 0.00 25.37 0.00 82 1001.3
20260505230037 13 248 0.0 0.0 0.00 25.37 0.00 82 1001.5
20260505225537 13 248 0.0 0.0 0.00 25.37 0.00 82 1001.4
20260505225037 13 248 0.0 0.0 0.00 25.37 0.00 82 1001.4
20260505224538 13 248 0.0 0.0 0.00 25.37 0.00 82 1001.4
20260505224039 13 248 0.0 0.0 0.00 25.37 0.00 82 1001.4
20260505223540 13 248 0.0 0.0 0.00 25.37 0.00 82 1001.5
20260505223037 13 248 0.0 0.0 0.00 25.37 0.00 82 1001.5
20260505222537 13 248 0.0 0.0 0.00 25.37 0.00 82 1001.5
20260505222043 13 248 0.0 0.0 0.00 25.37 0.00 82 1001.5
20260505221539 13 248 0.0 0.0 0.00 25.37 0.00 82 1001.4
20260505221037 13 248 0.0 0.0 0.00 25.37 0.00 82 1001.5
20260505220637 13 248 0.0 0.0 0.00 25.37 0.00 82 1001.5
20260505220539 13 248 0.0 0.0 0.00 25.37 0.00 82 1001.5
20260505220037 13 248 0.0 0.0 0.00 25.37 0.00 82 1001.5
20260505215537 13 248 0.0 0.0 0.00 25.37 0.00 82 1001.5
20260505215039 13 248 0.0 0.0 0.00 25.37 0.00 82 1001.4
20260505214537 13 248 0.0 0.0 0.00 25.37 0.00 82 1001.6
20260505214046 13 248 0.0 0.0 0.00 25.37 0.00 82 1001.6
20260505213039 13 248 0.0 0.0 0.00 25.37 0.00 82 1001.8
20260505212537 13 248 0.0 0.0 0.00 25.37 0.00 82 1001.7
20260505212038 13 248 0.0 0.0 0.00 25.37 0.00 82 1001.7
20260505211539 13 248 0.0 0.0 0.00 25.37 0.00 82 1001.9
20260505211039 13 248 0.0 0.0 0.00 25.37 0.00 82 1001.9
20260505210038 13 248 0.0 0.0 0.00 25.37 0.00 82 1002.0
20260505205538 13 248 0.0 0.0 0.00 25.37 0.00 82 1002.0
20260505205038 13 248 0.0 0.0 0.00 25.37 0.00 83 1001.9
20260505204538 13 248 0.0 0.0 0.00 25.37 0.00 83 1001.9
20260505204042 13 248 0.0 0.0 0.00 25.37 0.00 83 1001.8
20260505203538 13 248 0.0 0.0 0.00 25.37 0.00 83 1001.9
20260505203038 13 248 0.0 0.0 0.00 25.37 0.00 84 1002.0
20260505202538 13 248 0.0 0.0 0.00 25.37 0.00 84 1001.9
20260505202038 13 248 0.0 0.0 0.00 25.37 0.00 84 1001.9
20260505201539 13 248 0.0 0.0 0.00 25.37 0.00 83 1002.0
20260505201039 13 248 0.0 0.0 0.00 25.37 0.00 83 1001.9
20260505200539 13 248 0.0 0.0 0.00 25.37 0.00 83 1002.0
20260505200039 13 248 0.0 0.0 0.00 25.37 0.00 83 1001.9
20260505195538 13 248 0.0 0.0 0.00 25.37 0.00 83 1001.9
20260505195038 13 248 0.0 0.0 0.00 25.37 0.00 83 1001.8
20260505194041 13 248 0.0 0.0 0.00 25.37 0.00 82 1001.6
20260505193541 13 248 0.0 0.0 0.00 25.37 0.00 82 1001.8
20260505193038 12 248 0.0 0.0 13.21 25.37 0.00 82 1001.8
20260505192538 12 248 0.0 0.0 13.59 25.37 0.00 81 1001.6
20260505192042 12 248 0.0 0.0 13.59 25.37 0.00 81 1001.7
20260505191539 12 248 0.0 0.0 13.59 25.37 0.00 81 1001.6
20260505191038 12 248 0.0 0.0 13.59 25.37 0.00 81 1001.8
20260505190538 12 248 0.0 0.0 13.59 25.37 0.00 81 1001.6
20260505190039 12 248 0.0 0.0 13.59 25.37 0.00 81 1001.7
20260505185539 12 248 0.0 0.0 25.37 25.37 0.00 81 1001.5